Voltar ao catálogo

OPS 4682 DEB

AtivoPO
NORAD 55119·DEBRIS·🇺🇸 United States

Lançado Apr 3, 1965 de Vandenberg Space Force Base

Loading…

Próximas Passagens (próximas 24 horas)

TLE

AtualizadoSource: Space-Track

Época: Sep 13, 2026, 07:11 UTC

1 55119U 65027HJ  26256.29966948  .00000558  00000-0  19166-2 0  9998
2 55119  90.2539   8.3458 0022747 223.2438 136.6897 12.96684581341340

Acompanhe OPS 4682 DEB em tempo real com AllMySat

Download on the App Store